Middlebury State AP, Middlebu, VT

8:11 PM EST on November 15, 2019 (GMT -0500)
Middlebury State AP, Middlebu

Weather History for K6B0 - September, 2019

Change the Weather History Date:

Friday, September 27, 2019

  Actual Average (KRUT) Record (KRUT)
Temperature  
Mean Temperature 54 °F -  
Max Temperature 65 °F 67 °F 87 °F (2017)
Min Temperature 44 °F 44 °F 28 °F (1957)
Degree Days  
Heating Degree Days 10    
Growing Degree Days 4 (Base 50)    
Moisture  
Dew Point 47 °F    
Average Humidity 92    
Maximum Humidity 99    
Minimum Humidity 54    
Precipitation  
Precipitation 0.00 in - - ()
Sea Level Pressure  
Sea Level Pressure 30.03 in    
Wind  
Wind Speed 1 mph ()    
Max Wind Speed 7 mph    
Max Gust Speed -    
Visibility 5.9 miles    
Events Fog    
Averages and records for this station are not official NWS values.
T = Trace of Precipitation, MM = Missing Value Source: Averaged Metar Reports

Daily Weather History Graph

Daily Weather History Graph

Search for Another Location

Airport or City:

Astronomy

Sep. 27, 2019 Rise Set
Actual Time 6:45 AM EDT 6:41 PM EDT
Civil Twilight 6:16 AM EDT 7:09 PM EDT
Nautical Twilight 5:42 AM EDT 7:43 PM EDT
Astronomical Twilight 5:08 AM EDT 8:17 PM EDT
Moon 4:56 AM EDT (9/27) 6:34 PM EDT (9/27)
Length of Visible Light 12h 53m
Length of Day
11h 55m
Waning Crescent, 2% of the Moon is Illuminated
Sep 27
Waning Crescent
Sep 28
New
Oct 5
First Quarter
Oct 13
Full
Oct 21
Last Quarter

Hourly Weather History & Observations

Time (EDT) Temp. Windchill Dew Point Humidity Pressure Visibility Wind Dir Wind Speed Gust Speed Precip Events Conditions
12:15 AM 50.0 °F - 49.6 °F 99% 29.91 in 4.0 mi Calm Calm - N/A   Scattered Clouds
12:19 AM 49.6 °F - 49.1 °F 98% 29.92 in 4.0 mi Calm Calm - N/A   Scattered Clouds
12:37 AM 48.9 °F - 48.4 °F 98% 29.92 in 0.8 mi Calm Calm - N/A   Mostly Cloudy
12:55 AM 48.4 °F - 48.0 °F 99% 29.92 in 2.5 mi Calm Calm - N/A   Scattered Clouds
1:15 AM 48.2 °F - 47.7 °F 98% 29.93 in 2.0 mi Calm Calm - N/A   Scattered Clouds
1:16 AM 48.2 °F - 47.7 °F 98% 29.93 in 1.8 mi Calm Calm - N/A   Scattered Clouds
1:35 AM 48.0 °F - 47.5 °F 98% 29.94 in 5.0 mi Calm Calm - N/A   Clear
1:36 AM 47.8 °F - 47.5 °F 99% 29.94 in 5.0 mi Calm Calm - N/A   Clear
1:58 AM 48.0 °F - 47.5 °F 98% 29.95 in 5.0 mi Calm Calm - N/A   Clear
2:16 AM 46.6 °F - 46.4 °F 99% 29.95 in 0.5 mi Calm Calm - N/A Fog Fog
2:35 AM 47.7 °F - 47.3 °F 99% 29.96 in 4.0 mi Calm Calm - N/A   Clear
2:36 AM 47.5 °F - 47.3 °F 99% 29.96 in 5.0 mi SE 3.5 mph - N/A   Scattered Clouds
2:55 AM 47.8 °F - 47.5 °F 99% 29.97 in 10.0 mi Calm Calm - N/A   Scattered Clouds
3:15 AM 45.7 °F 44.4 °F 45.3 °F 99% 29.98 in 7.0 mi South 3.5 mph - N/A   Clear
3:37 AM 46.6 °F - 46.2 °F 99% 29.97 in 4.0 mi Calm Calm - N/A   Clear
3:55 AM 46.4 °F 45.2 °F 46.0 °F 99% 29.99 in 7.0 mi SSW 3.5 mph - N/A   Clear
4:15 AM 46.4 °F - 46.0 °F 99% 29.99 in 10.0 mi Calm Calm - N/A   Clear
4:16 AM 46.4 °F - 46.0 °F 99% 29.99 in 10.0 mi Calm Calm - N/A   Clear
4:35 AM 46.6 °F - 46.4 °F 99% 30.00 in 7.0 mi Calm Calm - N/A   Scattered Clouds
4:58 AM 45.7 °F - 45.3 °F 99% 30.00 in 10.0 mi Calm Calm - N/A   Scattered Clouds
5:16 AM 46.0 °F - 45.5 °F 98% 30.02 in 10.0 mi Calm Calm - N/A   Clear
5:36 AM 45.7 °F - 45.5 °F 99% 30.02 in 4.0 mi Calm Calm - N/A   Clear
5:55 AM 45.9 °F - 45.7 °F 99% 30.03 in 2.5 mi Calm Calm - N/A   Clear
5:56 AM 46.0 °F - 45.7 °F 99% 30.03 in 2.5 mi Calm Calm - N/A   Clear
6:15 AM 46.0 °F - 45.7 °F 99% 30.04 in 0.8 mi Calm Calm - N/A   Mist
6:20 AM 46.2 °F - 45.9 °F 99% 30.04 in 0.8 mi Calm Calm - N/A   Mist
6:38 AM 45.1 °F - 44.8 °F 99% 30.05 in 0.8 mi Calm Calm - N/A   Mostly Cloudy
6:56 AM 45.1 °F - 44.8 °F 99% 30.05 in 0.5 mi Calm Calm - N/A Fog Fog
7:15 AM 44.4 °F - 44.1 °F 99% 30.06 in 0.5 mi Calm Calm - N/A Fog Fog
7:16 AM 44.6 °F - 44.4 °F 99% 30.07 in 0.5 mi Calm Calm - N/A Fog Fog
7:35 AM 44.6 °F - 44.2 °F 99% 30.08 in 2.5 mi Calm Calm - N/A   Clear
7:36 AM 44.6 °F - 44.4 °F 99% 30.08 in 2.5 mi Calm Calm - N/A   Clear
7:58 AM 46.6 °F - 46.2 °F 99% 30.09 in 0.8 mi Calm Calm - N/A   Mist
8:16 AM 48.6 °F - 48.4 °F 99% 30.09 in 4.0 mi Calm Calm - N/A   Clear
8:36 AM 49.8 °F - 49.5 °F 99% 30.10 in 10.0 mi Calm Calm - N/A   Clear
8:55 AM 52.0 °F - 50.9 °F 96% 30.11 in 10.0 mi Calm Calm - N/A   Clear
8:56 AM 52.0 °F - 50.9 °F 96% 30.11 in 10.0 mi Calm Calm - N/A   Clear
9:19 AM 54.5 °F - 50.7 °F 87% 30.11 in 10.0 mi South 3.5 mph - N/A   Clear
9:37 AM 55.8 °F - 50.0 °F 81% 30.12 in 10.0 mi SSE 4.6 mph - N/A   Clear
9:55 AM 56.5 °F - 50.0 °F 79% 30.12 in 10.0 mi South 4.6 mph - N/A   Scattered Clouds
10:15 AM 57.2 °F - 50.2 °F 77% 30.12 in 10.0 mi SSE 4.6 mph - N/A   Scattered Clouds
10:16 AM 57.4 °F - 50.2 °F 77% 30.12 in 10.0 mi SSE 3.5 mph - N/A   Scattered Clouds
10:35 AM 57.7 °F - 49.6 °F 74% 30.12 in 10.0 mi South 3.5 mph - N/A   Clear
10:59 AM 59.7 °F - 50.9 °F 73% 30.12 in 10.0 mi SSE 4.6 mph - N/A   Scattered Clouds
11:17 AM 59.7 °F - 48.9 °F 67% 30.12 in 10.0 mi Calm Calm - N/A   Clear
11:36 AM 60.8 °F - 49.1 °F 65% 30.12 in 10.0 mi SSW 4.6 mph - N/A   Clear
1:38 PM 64.4 °F - 48.9 °F 57% 30.09 in 10.0 mi South 6.9 mph - N/A   Clear
1:56 PM 65.3 °F - 49.6 °F 57% 30.09 in 10.0 mi SSE 5.8 mph - N/A   Clear
2:16 PM 65.5 °F - 48.4 °F 54% 30.08 in 10.0 mi SW 4.6 mph - N/A   Clear